User: anonymous   Login
Location: Fort Wayne
(41.1310°N, 85.1290°W)
Time: 01:00:28
(UTC-04:00)
Language:

MetOp-A - Orbit

View from above orbital plane
View from above orbital plane
View from above satellite
View from above satellite

Ground track
Ground track

The orbit data is extracted from the following two-line orbital elements,

1 29499U 06044A   16150.89740022  .00000003  00000-0  21253-4 0  9992
2 29499  98.6970 210.1337 0001580 146.2771 320.7646 14.21492104498684
Epoch (UTC): 29 May 2016 21:32:15
Eccentricity: 0.0001580
inclination: 98.6970°
perigee height: 819 km
apogee height: 821 km
right ascension of ascending node: 210.1337°
argument of perigee: 146.2771°
revolutions per day: 14.21492104
mean anomaly at epoch: 320.7646°
orbit number at epoch: 49868

The dashed part of the orbit path shows where the satellite is in the earth's shadow,  

DLR